Flag for U.S.A. Weather past 2 weeks in Metlakatla, Alaska, U.S.A.

Now
43 °F

Overcast.


Feels Like: 43 °F
Forecast: 44 / 48 °F
Wind: No wind

Location: Metlakatla - Metlakatla Seaplane Base

Current Time: Mar 6, 2015 at 8:58:16 PM

Latest Report: Mar 6, 2015 at 8:36 PM


Visibility: 10 mi

Pressure: 30.46 "Hg

Humidity: 87%

Dew point: 39 °F

Location of MetlakatlaLocation

Historic Weather in Metlakatla — Graph

°F

Metlakatla temperature yesterday

Maximum temperature yesterday: 48 °F (at 1:56 PM)
Minimum temperature yesterday: 39 °F (at 9:16 PM)
Average temperature yesterday: 44 °F

Past Weeks' High & Low Weather Summary

 TemperatureHumidityPressure
High48 °F (Feb 27, 1:16 PM)93% (Feb 19, 9:56 PM)30.54 "Hg (Feb 19, 9:56 PM)
Low36 °F (Feb 20, 4:36 AM)37% (Feb 27, 10:16 AM)29.83 "Hg (Mar 5, 1:36 PM)
Average43 °F72%30.32 "Hg
* Reported Feb 19 7:36 PM — Mar 6 7:16 PM, Metlakatla, Weather by CustomWeather, © 2015

Note: Actual official high and low records may vary slightly from our data, if they occured in-between our weather recording intervals... More about our weather records

Advertising

Metlakatla weather history for previous 24 hours

 ConditionsComfort  
Time TempWeatherWind HumidityBarometerVisibility
7:16 PM
Fri, Mar 6
45 °FOvercast.3 mph81%30.44 "Hg10 mi
6:56 PM45 °FOvercast.No wind81%30.45 "Hg10 mi
6:36 PM45 °FOvercast.No wind81%30.45 "Hg10 mi
6:16 PM45 °FPartly sunny.No wind81%30.45 "Hg10 mi
5:36 PM45 °FBroken clouds.5 mph81%30.45 "Hg10 mi
5:16 PM46 °FPartly sunny.6 mph82%30.45 "Hg10 mi
4:56 PM46 °FPassing clouds.No wind76%30.45 "Hg10 mi
4:36 PM46 °FBroken clouds.3 mph76%30.45 "Hg10 mi
4:16 PM46 °FPartly sunny.No wind76%30.45 "Hg10 mi
3:56 PM46 °FMostly cloudy.5 mph76%30.45 "Hg10 mi
3:36 PM46 °FOvercast.5 mph71%30.45 "Hg10 mi
3:16 PM46 °FBroken clouds.6 mph62%30.45 "Hg10 mi
2:36 PM45 °FPartly sunny.No wind81%30.45 "Hg10 mi
2:16 PM46 °FOvercast.3 mph76%30.46 "Hg10 mi
1:56 PM46 °FOvercast.3 mph76%30.46 "Hg10 mi
1:36 PM46 °FMore clouds than sun.3 mph76%30.46 "Hg10 mi
12:56 PM45 °FMore clouds than sun.6 mph81%30.46 "Hg10 mi
12:36 PM45 °FMostly cloudy.5 mph81%30.46 "Hg10 mi
12:16 PM45 °FMostly cloudy.No wind81%30.45 "Hg10 mi
11:56 AM45 °FMostly cloudy.3 mph81%30.45 "Hg10 mi
11:36 AM45 °FCloudy.No wind81%30.45 "Hg10 mi
11:16 AM45 °FMostly cloudy.5 mph81%30.44 "Hg10 mi
10:56 AM45 °FBroken clouds.3 mph81%30.44 "Hg10 mi
10:36 AM45 °FMore clouds than sun.No wind81%30.44 "Hg10 mi
10:16 AM45 °FMore clouds than sun.No wind81%30.43 "Hg10 mi
9:56 AM43 °FCloudy.No wind87%30.43 "Hg10 mi
9:36 AM45 °FBroken clouds.No wind81%30.42 "Hg10 mi
9:16 AM43 °FMore clouds than sun.No wind87%30.42 "Hg7 mi
8:56 AM43 °FMostly cloudy.No wind87%30.41 "Hg5 mi
8:36 AM45 °FMore clouds than sun.6 mph81%30.40 "Hg7 mi
8:16 AM45 °FMostly cloudy.6 mph81%30.39 "Hg10 mi
7:56 AM43 °FCloudy.5 mph87%30.38 "Hg10 mi
7:36 AM43 °FBroken clouds.3 mph81%30.38 "Hg10 mi
7:16 AM43 °FPassing clouds.5 mph81%30.37 "Hg10 mi
6:56 AM43 °FOvercast.5 mph87%30.37 "Hg10 mi
6:36 AM43 °FOvercast.5 mph87%30.37 "Hg10 mi
6:16 AM43 °FOvercast.3 mph87%30.37 "Hg10 mi
5:56 AM43 °FOvercast.5 mph87%30.37 "Hg10 mi
5:36 AM43 °FMostly cloudy.5 mph87%30.37 "Hg10 mi
5:16 AM43 °FMostly cloudy.5 mph87%30.36 "Hg10 mi
4:56 AM43 °FOvercast.3 mph87%30.36 "Hg10 mi
4:36 AM43 °FOvercast.3 mph81%30.35 "Hg10 mi
4:16 AM43 °FMostly cloudy.3 mph81%30.35 "Hg10 mi
3:56 AM43 °FMostly cloudy.5 mph81%30.34 "Hg10 mi
3:36 AM43 °FMostly cloudy.5 mph81%30.34 "Hg10 mi
3:16 AM41 °FPassing clouds.5 mph87%30.34 "Hg10 mi
2:56 AM41 °FPassing clouds.3 mph87%30.33 "Hg10 mi
2:36 AM43 °FPassing clouds.5 mph81%30.33 "Hg10 mi
2:16 AM43 °FPassing clouds.5 mph81%30.32 "Hg10 mi
1:56 AM43 °FOvercast.6 mph81%30.32 "Hg10 mi
1:36 AM43 °FMostly cloudy.5 mph81%30.31 "Hg10 mi
1:16 AM43 °FOvercast.5 mph81%30.31 "Hg10 mi
12:56 AM43 °FOvercast.5 mph81%30.30 "Hg10 mi
12:36 AM43 °FOvercast.3 mph81%30.29 "Hg10 mi
12:16 AM43 °FOvercast.No wind81%30.29 "Hg10 mi
11:56 PM
Thu, Mar 5
43 °FOvercast.5 mph81%30.28 "Hg10 mi
11:36 PM43 °FMostly cloudy.3 mph81%30.27 "Hg10 mi
11:16 PM43 °FMostly cloudy.5 mph81%30.27 "Hg10 mi
10:56 PM43 °FOvercast.3 mph81%30.26 "Hg10 mi
10:36 PM43 °FOvercast.5 mph81%30.25 "Hg10 mi
10:16 PM43 °FMostly cloudy.5 mph81%30.24 "Hg10 mi
9:56 PM41 °FOvercast.5 mph87%30.23 "Hg10 mi
9:36 PM41 °FPartly cloudy.5 mph87%30.22 "Hg10 mi
9:16 PM39 °FPassing clouds.5 mph87%30.21 "Hg10 mi
8:56 PM41 °FPassing clouds.3 mph87%30.19 "Hg10 mi
8:36 PM41 °FPartly cloudy.3 mph87%30.18 "Hg10 mi
8:16 PM41 °FOvercast.3 mph87%30.17 "Hg10 mi
Weather by CustomWeather, © 2015

See weather overviewHow to use our weather pages